AAL689 KDCA-KLGA

Flight info

Callsign AAL689
Flight time 0h 43m
Altitude 21000
Route DOCTR5 AGARD SPEAK PROUD2
Aircraft B738/M-SDE2E3FGHIRWXY/LB1

Departure

Time 2026-05-07 02:14
Airport Ronald Reagan Washington National Airport (KDCA)

Arrival

Time 2026-05-07 02:57
Airport LaGuardia Airport (KLGA)
Time Latitude Longitude Altitude Speed Heading
2026-05-07 01:47 38.85365 -77.04106 23 ft 0 kts 327°
2026-05-07 02:05 38.85354 -77.04096 27 ft 4 kts 338°
2026-05-07 02:05 38.85330 -77.04092 26 ft 4 kts 25°
2026-05-07 02:05 38.85314 -77.04112 27 ft 2 kts 72°
2026-05-07 02:05 38.85314 -77.04113 27 ft 0 kts 72°
2026-05-07 02:09 38.85316 -77.04104 27 ft 4 kts 72°
2026-05-07 02:09 38.85338 -77.04022 23 ft 12 kts 71°
2026-05-07 02:09 38.85304 -77.03931 23 ft 13 kts 150°
2026-05-07 02:10 38.85216 -77.03920 24 ft 12 kts 179°
2026-05-07 02:10 38.85119 -77.03912 24 ft 20 kts 174°
2026-05-07 02:10 38.84955 -77.03894 24 ft 19 kts 178°
2026-05-07 02:10 38.84821 -77.03885 24 ft 19 kts 176°
2026-05-07 02:11 38.84692 -77.03867 28 ft 18 kts 176°
2026-05-07 02:11 38.84567 -77.03857 23 ft 18 kts 176°
2026-05-07 02:11 38.84446 -77.03846 25 ft 17 kts 174°
2026-05-07 02:11 38.84330 -77.03834 25 ft 16 kts 175°
2026-05-07 02:12 38.84242 -77.03813 27 ft 10 kts 146°
2026-05-07 02:12 38.84224 -77.03786 23 ft 0 kts 126°
2026-05-07 02:13 38.84221 -77.03781 23 ft 6 kts 125°
2026-05-07 02:13 38.84211 -77.03701 25 ft 10 kts 39°
2026-05-07 02:13 38.84304 -77.03691 22 ft 29 kts 355°
2026-05-07 02:13 38.84789 -77.03740 25 ft 109 kts 355°
2026-05-07 02:14 38.85765 -77.03851 154 ft 161 kts 354°
2026-05-07 02:14 38.86992 -77.03986 578 ft 193 kts 351°
2026-05-07 02:14 38.88257 -77.04633 1272 ft 197 kts 326°
2026-05-07 02:14 38.89226 -77.05749 2411 ft 176 kts 313°
2026-05-07 02:15 38.90029 -77.07002 3259 ft 187 kts 303°
2026-05-07 02:15 38.90689 -77.08415 4221 ft 184 kts 296°
2026-05-07 02:15 38.91325 -77.09961 4702 ft 211 kts 291°
2026-05-07 02:15 38.92254 -77.11605 4955 ft 251 kts 319°
2026-05-07 02:16 38.93808 -77.12824 5557 ft 267 kts 323°
2026-05-07 02:16 38.95441 -77.14016 6422 ft 271 kts 326°
2026-05-07 02:16 38.97226 -77.14884 7296 ft 284 kts 346°
2026-05-07 02:16 38.99218 -77.14663 8128 ft 302 kts 14°
2026-05-07 02:17 39.01066 -77.13279 9007 ft 314 kts 33°
2026-05-07 02:17 39.02756 -77.11448 9758 ft 325 kts 46°
2026-05-07 02:17 39.03842 -77.08861 10424 ft 336 kts 76°
2026-05-07 02:17 39.04015 -77.05785 10685 ft 357 kts 97°
2026-05-07 02:18 39.03773 -77.02544 11181 ft 370 kts 99°
2026-05-07 02:18 39.03485 -76.99162 11494 ft 390 kts 99°
2026-05-07 02:18 39.03185 -76.95640 12026 ft 401 kts 99°
2026-05-07 02:18 39.02893 -76.92051 12760 ft 406 kts 98°
2026-05-07 02:19 39.02612 -76.88426 13541 ft 410 kts 98°
2026-05-07 02:19 39.02334 -76.84748 14237 ft 416 kts 98°
2026-05-07 02:19 39.02055 -76.81029 14908 ft 422 kts 98°
2026-05-07 02:19 39.01773 -76.77244 15564 ft 428 kts 98°
2026-05-07 02:20 39.01485 -76.73407 16224 ft 435 kts 98°
2026-05-07 02:20 39.01188 -76.69485 16608 ft 449 kts 98°
2026-05-07 02:20 39.00885 -76.65405 16829 ft 465 kts 96°
2026-05-07 02:20 39.00773 -76.61210 17021 ft 473 kts 91°
2026-05-07 02:21 39.00828 -76.57043 17018 ft 471 kts 90°
2026-05-07 02:21 39.00921 -76.52811 17134 ft 476 kts 90°
2026-05-07 02:21 39.00980 -76.48532 17681 ft 479 kts 90°
2026-05-07 02:21 39.00999 -76.44239 18328 ft 481 kts 91°
2026-05-07 02:22 39.01033 -76.39910 18825 ft 487 kts 88°
2026-05-07 02:22 39.01340 -76.35545 19234 ft 495 kts 83°
2026-05-07 02:22 39.01824 -76.31143 19665 ft 501 kts 81°
2026-05-07 02:22 39.02176 -76.28190 19954 ft 504 kts 81°
2026-05-07 02:23 39.02697 -76.23702 20385 ft 510 kts 82°
2026-05-07 02:23 39.03183 -76.19164 20795 ft 516 kts 82°
2026-05-07 02:23 39.03637 -76.14579 20895 ft 518 kts 83°
2026-05-07 02:23 39.04075 -76.09989 20883 ft 515 kts 83°
2026-05-07 02:24 39.04490 -76.05408 20885 ft 516 kts 84°
2026-05-07 02:24 39.04756 -76.00805 20892 ft 516 kts 87°
2026-05-07 02:24 39.04927 -75.96188 20894 ft 516 kts 88°
2026-05-07 02:24 39.05079 -75.91569 20887 ft 516 kts 88°
2026-05-07 02:25 39.05255 -75.86949 20887 ft 516 kts 87°
2026-05-07 02:25 39.05454 -75.82333 20889 ft 516 kts 87°
2026-05-07 02:25 39.05868 -75.77748 20847 ft 516 kts 74°
2026-05-07 02:25 39.07133 -75.73532 20888 ft 508 kts 58°
2026-05-07 02:26 39.09134 -75.69866 20885 ft 496 kts 41°
2026-05-07 02:26 39.11537 -75.66718 20893 ft 492 kts 38°
2026-05-07 02:26 39.13984 -75.63629 20913 ft 492 kts 38°
2026-05-07 02:26 39.16417 -75.60525 20894 ft 493 kts 38°
2026-05-07 02:27 39.18831 -75.57376 20887 ft 494 kts 39°
2026-05-07 02:27 39.21228 -75.54197 20885 ft 495 kts 39°
2026-05-07 02:27 39.23653 -75.51042 20882 ft 492 kts 35°
2026-05-07 02:27 39.26332 -75.48359 20893 ft 484 kts 27°
2026-05-07 02:28 39.29134 -75.45958 20889 ft 482 kts 25°
2026-05-07 02:28 39.31959 -75.43611 20883 ft 483 kts 25°
2026-05-07 02:28 39.34773 -75.41242 20898 ft 483 kts 26°
2026-05-07 02:28 39.37567 -75.38828 20883 ft 484 kts 26°
2026-05-07 02:29 39.40319 -75.36399 20874 ft 484 kts 27°
2026-05-07 02:29 39.43126 -75.33892 20875 ft 484 kts 27°
2026-05-07 02:29 39.45863 -75.31440 20878 ft 483 kts 27°
2026-05-07 02:29 39.48618 -75.28974 20869 ft 476 kts 27°
2026-05-07 02:30 39.51283 -75.26578 20805 ft 457 kts 27°
2026-05-07 02:30 39.53823 -75.24228 20688 ft 442 kts 28°
2026-05-07 02:30 39.56270 -75.21920 20632 ft 426 kts 28°
2026-05-07 02:30 39.58618 -75.19696 20619 ft 410 kts 27°
2026-05-07 02:31 39.60881 -75.17562 20447 ft 399 kts 27°
2026-05-07 02:31 39.63143 -75.15448 20056 ft 400 kts 27°
2026-05-07 02:31 39.65436 -75.13311 19692 ft 413 kts 28°
2026-05-07 02:31 39.67791 -75.11107 19325 ft 420 kts 28°
2026-05-07 02:32 39.70184 -75.08946 18952 ft 418 kts 27°
2026-05-07 02:32 39.72604 -75.06877 18585 ft 414 kts 26°
2026-05-07 02:32 39.74999 -75.04855 18260 ft 407 kts 26°
2026-05-07 02:32 39.77359 -75.02854 17829 ft 403 kts 26°
2026-05-07 02:33 39.79687 -75.00864 17326 ft 401 kts 27°
2026-05-07 02:33 39.82011 -74.98864 16802 ft 399 kts 27°
2026-05-07 02:33 39.84318 -74.96872 16322 ft 397 kts 28°
2026-05-07 02:33 39.86602 -74.94859 15856 ft 395 kts 29°
2026-05-07 02:34 39.88819 -74.92844 15407 ft 393 kts 30°
2026-05-07 02:34 39.91053 -74.90804 14942 ft 391 kts 30°
2026-05-07 02:34 39.93193 -74.88632 14476 ft 395 kts 40°
2026-05-07 02:34 39.95066 -74.85989 13981 ft 397 kts 46°
2026-05-07 02:35 39.96861 -74.83267 13569 ft 393 kts 47°
2026-05-07 02:35 39.98637 -74.80605 13364 ft 382 kts 46°
2026-05-07 02:35 40.00366 -74.78087 13233 ft 363 kts 45°
2026-05-07 02:35 40.02026 -74.75704 13119 ft 347 kts 44°
2026-05-07 02:36 40.03630 -74.73410 12877 ft 340 kts 44°
2026-05-07 02:36 40.05221 -74.71137 12588 ft 337 kts 44°
2026-05-07 02:36 40.06799 -74.68875 12284 ft 335 kts 44°
2026-05-07 02:36 40.08364 -74.66625 11981 ft 334 kts 44°
2026-05-07 02:37 40.09921 -74.64386 11688 ft 332 kts 44°
2026-05-07 02:37 40.11472 -74.62152 11348 ft 332 kts 44°
2026-05-07 02:37 40.13024 -74.59919 11047 ft 332 kts 44°
2026-05-07 02:37 40.14567 -74.57695 10790 ft 329 kts 44°
2026-05-07 02:38 40.16078 -74.55516 10513 ft 327 kts 44°
2026-05-07 02:38 40.17605 -74.53312 10215 ft 326 kts 44°
2026-05-07 02:38 40.19123 -74.51121 9952 ft 324 kts 44°
2026-05-07 02:38 40.20639 -74.48952 9665 ft 322 kts 42°
2026-05-07 02:39 40.22232 -74.46906 9380 ft 319 kts 40°
2026-05-07 02:39 40.23836 -74.44922 9108 ft 316 kts 39°
2026-05-07 02:39 40.25433 -74.42934 8806 ft 315 kts 40°
2026-05-07 02:39 40.27007 -74.40963 8562 ft 312 kts 40°
2026-05-07 02:40 40.28565 -74.38999 8314 ft 310 kts 40°
2026-05-07 02:40 40.30116 -74.37039 8113 ft 309 kts 39°
2026-05-07 02:40 40.31662 -74.35088 7965 ft 307 kts 40°
2026-05-07 02:40 40.33200 -74.33137 7851 ft 310 kts 40°
2026-05-07 02:41 40.34767 -74.31150 7691 ft 313 kts 40°
2026-05-07 02:41 40.36329 -74.29168 7541 ft 312 kts 40°
2026-05-07 02:41 40.37886 -74.27182 7395 ft 313 kts 40°
2026-05-07 02:41 40.39422 -74.25233 7261 ft 309 kts 40°
2026-05-07 02:42 40.40958 -74.23289 7105 ft 305 kts 40°
2026-05-07 02:42 40.42482 -74.21361 6984 ft 304 kts 40°
2026-05-07 02:42 40.44000 -74.19429 6870 ft 304 kts 40°
2026-05-07 02:42 40.45519 -74.17491 6737 ft 304 kts 40°
2026-05-07 02:43 40.47038 -74.15555 6623 ft 304 kts 41°
2026-05-07 02:43 40.48552 -74.13607 6468 ft 304 kts 40°
2026-05-07 02:43 40.50075 -74.11680 6333 ft 305 kts 40°
2026-05-07 02:43 40.51606 -74.09743 6193 ft 305 kts 39°
2026-05-07 02:44 40.53255 -74.08036 6059 ft 301 kts 28°
2026-05-07 02:44 40.55021 -74.06569 5921 ft 300 kts 26°
2026-05-07 02:44 40.56796 -74.05145 5776 ft 296 kts 27°
2026-05-07 02:44 40.58514 -74.03734 5644 ft 293 kts 27°
2026-05-07 02:45 40.60232 -74.02326 5509 ft 290 kts 27°
2026-05-07 02:45 40.61784 -74.00628 5351 ft 293 kts 50°
2026-05-07 02:45 40.62839 -73.98387 5277 ft 284 kts 59°
2026-05-07 02:45 40.63776 -73.96108 5145 ft 282 kts 60°
2026-05-07 02:46 40.64691 -73.93859 5137 ft 277 kts 60°
2026-05-07 02:46 40.65603 -73.91602 5040 ft 279 kts 60°
2026-05-07 02:46 40.66515 -73.89337 4954 ft 282 kts 60°
2026-05-07 02:46 40.67569 -73.87167 4837 ft 281 kts 42°
2026-05-07 02:47 40.69040 -73.85523 4762 ft 274 kts 31°
2026-05-07 02:47 40.70590 -73.84135 4673 ft 264 kts 27°
2026-05-07 02:47 40.72140 -73.82895 4520 ft 259 kts 26°
2026-05-07 02:47 40.73679 -73.81661 4269 ft 258 kts 26°
2026-05-07 02:48 40.75200 -73.80429 4009 ft 256 kts 26°
2026-05-07 02:48 40.76712 -73.79193 3782 ft 253 kts 27°
2026-05-07 02:48 40.78167 -73.77977 3624 ft 242 kts 27°
2026-05-07 02:48 40.79559 -73.76811 3490 ft 234 kts 27°
2026-05-07 02:49 40.80919 -73.75666 3357 ft 228 kts 27°
2026-05-07 02:49 40.82232 -73.74514 3230 ft 226 kts 28°
2026-05-07 02:49 40.83555 -73.73395 3119 ft 224 kts 26°
2026-05-07 02:49 40.84855 -73.72332 3032 ft 220 kts 26°
2026-05-07 02:50 40.86131 -73.71297 2997 ft 209 kts 26°
2026-05-07 02:50 40.87353 -73.70298 3004 ft 206 kts 26°
2026-05-07 02:50 40.88561 -73.69301 2992 ft 205 kts 27°
2026-05-07 02:50 40.89778 -73.68285 3000 ft 208 kts 27°
2026-05-07 02:51 40.91013 -73.67257 2993 ft 211 kts 25°
2026-05-07 02:51 40.92391 -73.66764 2982 ft 198 kts 349°
2026-05-07 02:51 40.93604 -73.67431 2999 ft 187 kts 312°
2026-05-07 02:51 40.94373 -73.68776 2999 ft 187 kts 300°
2026-05-07 02:52 40.95003 -73.70260 2971 ft 184 kts 284°
2026-05-07 02:52 40.94942 -73.71897 3000 ft 179 kts 252°
2026-05-07 02:52 40.94470 -73.73360 2962 ft 165 kts 242°
2026-05-07 02:52 40.93677 -73.74362 3003 ft 156 kts 223°
2026-05-07 02:53 40.92804 -73.75212 2998 ft 155 kts 221°
2026-05-07 02:53 40.91911 -73.76005 2972 ft 154 kts 219°
2026-05-07 02:53 40.91002 -73.76776 2881 ft 158 kts 219°
2026-05-07 02:53 40.90063 -73.77555 2677 ft 154 kts 218°
2026-05-07 02:54 40.89178 -73.78285 2474 ft 148 kts 218°
2026-05-07 02:54 40.88305 -73.79009 2279 ft 149 kts 218°
2026-05-07 02:54 40.87433 -73.79725 2074 ft 145 kts 219°
2026-05-07 02:54 40.86578 -73.80431 1884 ft 146 kts 219°
2026-05-07 02:55 40.85712 -73.81146 1678 ft 145 kts 220°
2026-05-07 02:55 40.84870 -73.81844 1494 ft 146 kts 219°
2026-05-07 02:55 40.83991 -73.82569 1301 ft 149 kts 219°
2026-05-07 02:55 40.83130 -73.83280 1062 ft 143 kts 217°
2026-05-07 02:56 40.82304 -73.83979 855 ft 140 kts 219°
2026-05-07 02:56 40.81475 -73.84665 737 ft 141 kts 215°
2026-05-07 02:56 40.80630 -73.85323 596 ft 143 kts 216°
2026-05-07 02:56 40.79794 -73.86065 369 ft 145 kts 213°
2026-05-07 02:57 40.78927 -73.86750 131 ft 144 kts 213°
2026-05-07 02:57 40.78090 -73.87444 18 ft 134 kts 214°
2026-05-07 02:57 40.77611 -73.87841 23 ft 31 kts 210°
2026-05-07 02:57 40.77451 -73.87969 24 ft 20 kts 201°
2026-05-07 02:58 40.77354 -73.87997 20 ft 11 kts 188°
2026-05-07 02:58 40.77325 -73.88001 20 ft 1 kts 186°
2026-05-07 02:58 40.77313 -73.88000 19 ft 2 kts 170°
2026-05-07 02:58 40.77297 -73.87968 19 ft 11 kts 84°
2026-05-07 02:59 40.77369 -73.87891 21 ft 14 kts 33°
2026-05-07 02:59 40.77450 -73.87824 20 ft 13 kts 32°
2026-05-07 02:59 40.77526 -73.87761 21 ft 13 kts 36°
2026-05-07 02:59 40.77522 -73.87657 20 ft 13 kts 106°
2026-05-07 03:00 40.77516 -73.87558 19 ft 10 kts 99°
2026-05-07 03:00 40.77485 -73.87476 19 ft 10 kts 107°
2026-05-07 03:00 40.77472 -73.87409 20 ft 2 kts 103°
2026-05-07 03:00 40.77467 -73.87380 19 ft 7 kts 107°
2026-05-07 03:01 40.77458 -73.87317 20 ft 6 kts 83°
2026-05-07 03:01 40.77475 -73.87285 19 ft 3 kts 41°
2026-05-07 03:01 40.77484 -73.87275 20 ft 0 kts 39°